Total_Precipitation_Accumulation
0.03 0.05 0.09 0.13 0.15 0.18 0.23 0.30 0.32 0.34 0.32 0.38 0.46 0.61 0.85 1.00 1.20 1.26 1.31 1.45 1.67 1.94 2.13 2.45 2.79 3.08 3.57 3.60 3.47 3.54 3.71 3.93 4.04 4.33 4.43 4.69 5.08 5.32 5.46 5.46 5.31 5.34 5.22 5.30
0.07 0.08 0.09 0.13 0.13 0.15 0.23 0.38 0.40 0.37 0.32 0.40 0.57 0.73 0.93 1.10 1.18 1.17 1.30 1.47 1.64 2.07 2.47 2.68 2.83 3.22 3.68 3.85 3.85 3.87 4.04 4.38 4.62 4.89 5.32 5.64 6.00 6.27 6.43 6.44 5.99 5.74 5.58 5.47
0.08 0.09 0.07 0.10 0.11 0.13 0.18 0.26 0.33 0.34 0.33 0.44 0.66 0.95 1.09 1.21 1.36 1.56 1.77 1.93 2.02 2.25 2.65 2.75 2.81 3.18 3.51 3.73 3.86 4.00 4.25 4.70 5.25 5.64 6.08 6.49 6.71 6.76 6.58 6.29 6.16 5.96 5.79 5.64
0.07 0.06 0.06 0.09 0.12 0.15 0.17 0.19 0.27 0.29 0.37 0.52 0.63 1.13 1.45 1.54 1.70 1.97 2.16 2.17 2.25 2.38 2.56 2.68 2.79 3.08 3.41 3.70 3.88 4.22 4.72 5.35 5.90 6.36 6.94 7.46 7.57 7.30 6.94 6.47 6.04 5.78 5.55 5.24
0.08 0.08 0.09 0.10 0.12 0.15 0.17 0.16 0.24 0.28 0.33 0.47 0.64 1.09 1.89 2.00 2.08 2.30 2.44 2.22 2.24 2.17 2.22 2.46 2.60 2.82 3.28 3.58 3.85 4.20 4.76 5.50 6.22 7.01 7.66 8.07 7.94 7.57 7.10 6.41 5.81 5.34 4.97 4.63
0.10 0.08 0.08 0.09 0.10 0.14 0.14 0.17 0.23 0.29 0.37 0.60 0.61 1.00 1.79 2.17 2.35 2.49 2.38 2.12 2.05 1.96 1.98 2.09 2.26 2.56 2.97 3.28 3.56 3.97 4.64 5.43 6.08 6.64 7.10 7.32 7.22 7.01 6.46 5.74 5.11 4.69 4.38 4.06
0.16 0.14 0.10 0.08 0.09 0.14 0.17 0.23 0.50 0.68 0.78 0.79 0.65 0.99 1.71 1.95 2.06 1.99 1.93 1.95 1.82 1.89 1.85 1.87 2.00 2.24 2.61 2.80 3.20 3.62 4.08 4.76 5.19 5.51 5.84 6.00 6.06 5.84 5.51 5.02 4.56 4.13 3.64 3.27
0.28 0.26 0.14 0.09 0.09 0.16 0.18 0.21 0.57 0.89 0.90 0.89 0.86 1.34 1.90 1.85 1.77 1.65 1.61 1.66 1.69 1.74 1.78 1.81 1.96 2.15 2.43 2.58 2.77 2.96 3.24 3.64 3.81 3.84 4.07 4.33 4.36 4.31 4.18 3.89 3.53 3.23 2.89 2.51
0.39 0.29 0.15 0.09 0.09 0.13 0.18 0.19 0.29 0.55 0.63 1.01 1.28 1.74 2.20 1.97 1.88 1.80 1.74 1.59 1.53 1.51 1.59 1.78 1.91 1.92 1.98 2.04 2.14 2.25 2.43 2.59 2.65 2.73 2.81 2.96 2.97 2.95 2.89 2.74 2.46 2.24 2.09 1.86
0.35 0.30 0.16 0.11 0.10 0.13 0.16 0.23 0.35 0.62 1.05 1.32 1.58 2.20 2.77 2.57 2.16 1.84 1.64 1.44 1.35 1.39 1.50 1.68 1.81 1.79 1.79 1.75 1.83 1.91 2.00 2.06 2.08 2.14 2.11 2.08 2.12 2.13 2.12 1.98 1.86 1.76 1.64 1.53
0.31 0.35 0.22 0.16 0.20 0.22 0.25 0.30 0.45 0.67 0.83 1.30 1.83 2.57 2.63 2.81 2.63 2.13 1.79 1.62 1.50 1.41 1.44 1.57 1.58 1.57 1.58 1.57 1.64 1.70 1.70 1.70 1.69 1.68 1.67 1.63 1.58 1.61 1.68 1.68 1.58 1.52 1.42 1.29
0.32 0.45 0.43 0.28 0.22 0.21 0.23 0.31 0.47 0.89 0.98 1.03 1.73 2.75 2.53 2.76 2.83 2.52 2.19 2.00 1.86 1.56 1.49 1.48 1.43 1.41 1.39 1.43 1.48 1.54 1.49 1.44 1.48 1.42 1.37 1.37 1.36 1.36 1.41 1.39 1.28 1.22 1.24 1.15
0.35 0.57 0.92 0.88 0.67 0.39 0.30 0.32 0.39 0.54 0.85 1.15 1.81 2.93 2.83 2.65 2.66 2.59 2.32 2.21 2.24 2.06 1.85 1.69 1.52 1.50 1.47 1.44 1.38 1.27 1.26 1.25 1.28 1.28 1.25 1.24 1.25 1.25 1.24 1.22 1.21 1.16 1.16 1.14
0.31 0.58 1.14 1.50 1.10 0.67 0.48 0.37 0.39 0.54 0.95 1.19 1.60 2.32 2.59 2.58 2.62 2.65 2.67 2.66 2.66 2.36 2.05 1.83 1.63 1.55 1.51 1.41 1.35 1.27 1.25 1.17 1.14 1.17 1.18 1.19 1.18 1.18 1.14 1.16 1.24 1.20 1.11 1.04
0.43 0.83 0.83 0.73 0.65 0.57 0.49 0.47 0.46 0.49 0.63 1.02 1.46 1.89 2.32 2.45 2.59 2.82 2.94 2.83 2.60 2.22 1.98 1.87 1.76 1.68 1.59 1.46 1.39 1.29 1.22 1.12 1.08 1.04 1.07 1.10 1.08 1.05 1.01 1.06 1.11 1.13 1.11 1.02
0.50 0.82 0.82 0.72 0.57 0.62 0.60 0.61 0.63 0.60 0.66 0.97 1.42 2.08 2.38 2.58 2.73 2.79 2.73 2.76 2.71 2.35 2.11 1.98 1.84 1.74 1.71 1.59 1.51 1.41 1.32 1.25 1.15 1.07 1.09 1.07 1.07 1.03 1.00 1.00 1.03 1.00 0.96 0.96
0.54 0.84 1.15 1.08 0.66 0.87 1.20 0.98 0.84 0.86 0.89 1.10 1.50 1.90 2.06 2.23 2.38 2.64 2.78 2.70 2.67 2.42 2.19 2.05 2.00 1.96 1.89 1.83 1.73 1.57 1.40 1.33 1.13 1.02 1.01 0.99 0.98 0.95 0.93 0.88 0.88 0.90 0.96 0.96
0.47 0.85 1.10 1.10 1.23 1.68 1.41 0.91 0.79 0.94 1.01 1.02 1.21 1.34 1.59 1.78 2.02 2.32 2.51 2.68 2.72 2.52 2.36 2.22 2.07 2.01 1.95 1.85 1.71 1.52 1.31 1.15 1.00 0.94 0.93 0.88 0.86 0.85 0.88 0.83 0.82 0.87 0.92 0.91
0.37 0.77 1.17 1.30 1.60 1.69 1.36 0.86 0.77 1.10 1.30 1.00 1.05 1.11 1.16 1.25 1.54 2.05 2.16 2.28 2.41 2.43 2.37 2.24 2.06 1.96 1.87 1.66 1.50 1.38 1.16 1.04 0.98 0.91 0.89 0.80 0.73 0.80 0.82 0.79 0.79 0.85 0.84 0.84
0.43 0.68 1.13 1.36 1.79 2.08 1.69 0.79 0.54 0.92 1.76 1.23 1.10 1.17 1.18 1.35 1.72 1.80 1.64 1.70 1.83 1.97 2.07 2.02 1.85 1.74 1.68 1.49 1.32 1.27 1.13 1.00 0.94 0.87 0.84 0.78 0.75 0.78 0.82 0.85 0.83 0.77 0.79 0.76
0.82 0.97 1.22 1.45 1.80 1.84 1.02 0.62 0.76 1.64 2.01 1.38 1.12 1.20 1.38 1.65 1.65 1.33 1.15 1.31 1.46 1.57 1.71 1.71 1.62 1.60 1.50 1.31 1.25 1.31 1.26 1.09 0.89 0.79 0.77 0.80 0.81 0.76 0.73 0.77 0.79 0.76 0.69 0.72
0.97 1.21 1.37 1.55 1.97 1.97 0.84 0.72 1.26 1.48 1.15 1.03 1.03 1.09 1.12 1.15 1.06 0.96 0.97 1.09 1.17 1.29 1.38 1.47 1.54 1.50 1.40 1.29 1.27 1.29 1.25 1.03 0.87 0.84 0.85 0.82 0.76 0.64 0.60 0.71 0.73 0.71 0.72 0.75
0.91 1.12 1.29 1.53 1.81 1.39 0.80 0.77 0.81 0.80 0.92 0.92 0.96 0.97 0.90 0.93 0.95 0.89 0.94 1.07 1.16 1.20 1.23 1.28 1.35 1.35 1.30 1.24 1.25 1.24 1.14 0.94 0.87 0.93 0.91 0.85 0.74 0.66 0.65 0.70 0.71 0.69 0.70 0.68
0.95 0.79 0.94 1.14 1.18 1.05 0.92 0.81 0.77 0.80 0.83 0.85 0.90 0.89 0.84 0.85 0.84 0.85 0.97 1.08 1.14 1.11 1.11 1.18 1.25 1.25 1.21 1.12 1.11 1.11 0.99 0.94 0.97 0.95 0.87 0.83 0.76 0.68 0.62 0.61 0.58 0.62 0.65 0.66
0.97 0.86 1.01 1.22 1.22 1.15 1.12 0.98 0.91 0.93 0.92 0.88 0.91 0.94 0.85 0.79 0.83 0.85 0.97 1.00 1.03 1.04 1.03 1.07 1.19 1.19 1.07 0.97 0.91 0.87 0.92 0.97 1.01 0.94 0.80 0.72 0.66 0.63 0.62 0.56 0.50 0.51 0.55 0.56
0.87 0.92 1.05 1.25 1.16 1.17 1.14 0.97 0.92 1.07 1.13 1.01 0.97 0.91 0.82 0.78 0.81 0.80 0.82 0.85 0.86 0.90 0.94 1.00 1.00 1.00 0.92 0.85 0.83 0.77 0.81 0.87 0.87 0.81 0.70 0.60 0.54 0.52 0.46 0.46 0.45 0.42 0.41 0.42